Stations météo

réclame
Mon MeteoGroup
Nordkoster, Suède (2500): Température de l'air & dewpoint: 12.06.2019 01:00:00 - 18.06.2019 01:00:00 (CEST)Nordkoster, Suède (2500): Vitesse du vent & gusts: 12.06.2019 01:00:00 - 18.06.2019 01:00:00 (CEST)Nordkoster, Suède (2500): Direction du vent: 12.06.2019 01:00:00 - 18.06.2019 01:00:00 (CEST)Nordkoster, Suède (2500): reduced air pressure: 12.06.2019 01:00:00 - 18.06.2019 01:00:00 (CEST)Nordkoster, Suède (2500): visibility: 12.06.2019 01:00:00 - 18.06.2019 01:00:00 (CEST)Nordkoster, Suède (2500): Quantités de précipitations: 12.06.2019 01:00:00 - 18.06.2019 01:00:00 (CEST)
Date & Time tt [°C] td [°C] ff [km/h] ff [knt] fx [km/h] fx [knt] dd ppp [hPa] vv [km] rr [mm]
18.06.2019 01:00:00 - - - - - - - - - -
18.06.2019 00:00:00 13,7 11,9 24 13 39 21 SW 1017,7 12 0,0
17.06.2019 23:00:00 13,8 11,8 26 14 44 24 SW 1017,7 12 0,0
17.06.2019 22:00:00 14,1 12,0 31 17 44 24 SW 1017,6 14 0,0
17.06.2019 21:00:00 14,3 12,0 26 14 39 21 SW 1017,3 11 0,0
17.06.2019 20:00:00 14,6 11,9 27 15 37 20 SW 1017,6 14 0,0
17.06.2019 19:00:00 14,9 12,2 26 14 36 20 SW 1017,6 15 0,0
17.06.2019 18:00:00 16,3 12,8 27 15 37 20 SW 1017,6 20 0,0
17.06.2019 17:00:00 16,2 12,9 24 13 - - SSW 1017,8 22 0,0
17.06.2019 16:00:00 17,6 13,3 19 11 31 17 SSW 1018,1 22 0,0
17.06.2019 15:00:00 16,0 12,4 20 11 39 21 SW 1018,5 23 0,0
17.06.2019 14:00:00 16,1 12,6 26 14 41 22 SSW 1018,6 21 0,0
17.06.2019 13:00:00 15,7 11,1 28 15 41 22 SSW 1018,5 28 0,0
17.06.2019 12:00:00 15,5 10,9 28 15 - - SW 1018,3 26 0,0
17.06.2019 11:00:00 15,6 10,1 27 15 40 22 SW 1018,3 27 0,0
17.06.2019 10:00:00 15,3 11,1 25 13 42 23 SW 1017,9 24 0,0
17.06.2019 09:00:00 14,9 10,7 24 13 43 23 SW 1017,5 22 0,0
17.06.2019 08:00:00 14,5 10,5 29 16 49 26 SW 1017,0 21 0,0
17.06.2019 07:00:00 14,0 11,0 27 14 43 23 SW 1016,6 17 0,0
17.06.2019 06:00:00 13,5 10,8 31 17 46 25 SW 1016,3 18 0,0
17.06.2019 05:00:00 13,4 10,4 30 16 41 22 SW 1016,1 18 0,0
17.06.2019 04:00:00 13,3 11,0 25 13 45 24 SW 1016,0 16 0,0
17.06.2019 03:00:00 13,4 11,1 28 15 42 23 SW 1016,0 14 0,0
17.06.2019 02:00:00 13,4 11,3 28 15 43 23 SW 1016,2 15 0,0
17.06.2019 01:00:00 13,4 11,8 29 16 49 26 SW 1016,1 13 0,0
17.06.2019 00:00:00 13,6 11,5 31 17 - - SW 1015,9 14 0,0
16.06.2019 23:00:00 13,6 11,6 29 16 44 24 SW 1015,8 13 0,0
16.06.2019 22:00:00 13,5 12,1 27 15 45 25 SW 1015,7 11 0,0
16.06.2019 21:00:00 14,0 12,4 28 15 41 22 SW 1015,8 11 0,0
16.06.2019 20:00:00 14,4 12,4 32 17 44 24 SW 1015,9 15 0,0
16.06.2019 19:00:00 15,5 11,7 26 14 36 19 SW 1015,7 24 0,0
16.06.2019 18:00:00 16,3 11,5 21 11 31 17 SSW 1015,9 26 0,0
16.06.2019 17:00:00 15,3 11,7 20 11 33 18 SSW 1015,7 26 0,0
16.06.2019 16:00:00 14,6 13,3 22 12 34 18 SSW 1015,7 17 0,0
16.06.2019 15:00:00 15,2 13,9 20 11 29 16 SSW 1015,1 11 0,0
16.06.2019 14:00:00 15,3 14,5 16 9 - - SW 1014,7 9 0,0
16.06.2019 13:00:00 14,9 14,6 13 7 26 14 SW 1014,3 1,6 0,4
16.06.2019 12:00:00 15,5 15,0 18 10 29 16 SSE 1013,9 2,3 0,2
16.06.2019 11:00:00 16,4 14,1 18 10 24 13 S 1013,5 22 0,0
16.06.2019 10:00:00 16,7 14,3 16 9 - - SSW 1013,5 27 0,0
16.06.2019 09:00:00 16,8 13,5 16 8 23 13 S 1013,1 44 0,0
16.06.2019 08:00:00 17,3 12,8 9 5 15 8 SSE 1012,6 44 0,0
16.06.2019 07:00:00 16,1 12,6 8 5 10 5 ESE 1012,3 49 0,0
16.06.2019 06:00:00 15,9 12,5 7 4 25 14 SSE 1012,5 34 0,3
16.06.2019 05:00:00 16,6 11,1 13 7 16 9 ESE 1012,4 47 0,0
16.06.2019 04:00:00 17,2 10,6 14 8 25 14 ESE 1012,6 46 0,0
16.06.2019 03:00:00 17,3 10,2 14 8 23 13 E 1012,7 50 0,0
16.06.2019 02:00:00 17,0 11,1 10 6 20 11 NE 1012,8 50 0,0
16.06.2019 01:00:00 17,0 10,8 11 6 16 9 NNE 1013,3 50 0,0
16.06.2019 00:00:00 17,0 11,3 0 0 14 8 N 1014,2 50 0,0
15.06.2019 23:00:00 17,3 11,1 9 5 17 9 WSW 1014,0 50 0,0
15.06.2019 22:00:00 18,0 10,6 11 6 21 11 WSW 1013,8 47 0,0
15.06.2019 21:00:00 18,5 14,4 14 7 23 12 SSW 1014,2 47 0,0
15.06.2019 20:00:00 22,4 13,2 15 8 24 13 SSE 1014,0 50 0,0
15.06.2019 19:00:00 23,5 12,2 10 6 20 11 E 1013,8 50 0,0
15.06.2019 18:00:00 23,6 11,6 12 7 24 13 E 1014,2 46 0,0
15.06.2019 17:00:00 24,0 10,3 17 9 27 14 E 1014,7 42 0,0
15.06.2019 16:00:00 24,2 10,1 17 9 29 16 ESE 1015,1 43 0,0
15.06.2019 15:00:00 24,5 10,4 16 8 26 14 ESE 1015,4 43 0,0
15.06.2019 14:00:00 24,1 10,4 10 5 21 12 E 1015,8 50 0,0
15.06.2019 13:00:00 23,8 11,5 10 6 - - ENE 1016,1 36 0,0
15.06.2019 12:00:00 22,7 11,1 7 4 17 9 NE 1017,2 45 0,0
15.06.2019 11:00:00 21,5 11,2 10 5 18 10 NE 1017,5 40 0,0
15.06.2019 10:00:00 20,6 12,3 10 5 17 9 NE 1017,6 41 0,0
15.06.2019 09:00:00 19,7 11,5 7 4 14 8 ENE 1018,3 44 0,0
15.06.2019 08:00:00 17,2 11,5 9 5 - - ENE 1018,2 44 0,0
15.06.2019 07:00:00 16,0 11,0 9 5 14 8 ENE 1018,4 49 0,0
15.06.2019 06:00:00 14,5 11,3 8 5 15 8 E 1018,9 44 0,0
15.06.2019 05:00:00 13,3 11,7 9 5 10 6 E 1018,9 40 0,0
15.06.2019 04:00:00 13,0 11,9 6 4 10 5 E 1019,2 25 0,0
15.06.2019 03:00:00 14,3 12,0 5 3 11 6 ESE 1019,3 45 0,0
15.06.2019 02:00:00 14,0 12,7 7 4 9 5 E 1019,4 30 0,0
15.06.2019 01:00:00 15,3 12,2 5 3 7 4 ESE 1019,3 48 0,0
15.06.2019 00:00:00 14,7 13,4 6 3 - - E 1019,4 15 0,0
14.06.2019 23:00:00 15,0 13,2 8 4 9 5 E 1018,9 30 0,0
14.06.2019 22:00:00 15,3 13,1 4 2 7 4 E 1018,8 32 0,0
14.06.2019 21:00:00 15,9 13,0 5 3 12 6 S 1018,9 38 0,0
14.06.2019 20:00:00 16,0 13,7 5 3 12 7 S 1018,8 29 0,0
14.06.2019 19:00:00 16,8 13,7 7 4 13 7 SSW 1018,7 26 0,0
14.06.2019 18:00:00 17,5 13,6 6 3 24 13 SW 1018,5 27 0,0
14.06.2019 17:00:00 17,5 14,4 16 9 27 14 SSW 1019,1 28 0,0
14.06.2019 16:00:00 17,3 14,2 16 8 29 16 SSW 1019,2 23 0,0
14.06.2019 15:00:00 17,2 14,1 21 11 34 18 SSW 1018,9 26 0,0
14.06.2019 14:00:00 17,2 14,3 20 11 30 16 S 1018,9 23 0,0
14.06.2019 13:00:00 17,1 14,2 21 12 31 17 S 1018,8 26 0,0
14.06.2019 12:00:00 16,8 13,9 20 11 27 15 S 1018,5 28 0,0
14.06.2019 11:00:00 16,1 12,6 16 9 28 15 SSE 1018,0 48 0,0
14.06.2019 10:00:00 15,8 13,5 16 8 23 12 SE 1017,8 30 0,0
14.06.2019 09:00:00 13,5 12,7 15 8 24 13 E 1017,2 12 0,0
14.06.2019 08:00:00 13,4 12,5 12 6 32 18 SE 1017,2 9 1,9
14.06.2019 07:00:00 13,1 12,2 20 11 27 15 ESE 1016,6 9 2,5
14.06.2019 06:00:00 13,3 10,8 18 10 26 14 E 1016,3 42 0,0
14.06.2019 05:00:00 12,9 10,6 17 9 22 12 E 1016,2 41 0,0
14.06.2019 04:00:00 12,2 11,3 13 7 17 9 ENE 1016,2 21 0,0
14.06.2019 03:00:00 12,7 10,9 7 4 11 6 ESE 1016,6 40 0,0
14.06.2019 02:00:00 12,8 10,7 10 5 16 9 ENE 1016,0 37 0,0
14.06.2019 01:00:00 13,3 10,7 10 5 15 8 NE 1016,1 41 0,0
14.06.2019 00:00:00 13,5 11,0 10 5 13 7 NE 1016,3 42 0,0
13.06.2019 23:00:00 14,2 11,2 7 4 10 5 ENE 1015,8 32 0,0
13.06.2019 22:00:00 13,9 10,7 6 3 10 5 E 1015,2 34 0,0
13.06.2019 21:00:00 14,0 10,6 4 2 9 5 ENE 1015,2 33 0,0
13.06.2019 20:00:00 15,6 9,9 3 2 8 5 SSW 1014,9 44 0,0
13.06.2019 19:00:00 15,3 9,6 3 2 11 6 S 1014,3 43 0,0
13.06.2019 18:00:00 15,6 9,5 5 3 13 7 SSW 1013,6 37 0,0
13.06.2019 17:00:00 15,2 9,8 11 6 21 11 SSW 1013,6 27 0,0
13.06.2019 16:00:00 15,6 11,0 16 9 26 14 SSW 1013,3 29 0,0
13.06.2019 15:00:00 14,5 11,3 19 10 27 15 SSW 1013,0 18 0,0
13.06.2019 14:00:00 13,6 11,6 18 10 29 15 SSW 1012,6 15 0,0
13.06.2019 13:00:00 13,6 12,3 17 9 35 19 WSW 1011,4 11 0,0
13.06.2019 12:00:00 13,9 12,9 20 11 42 23 WSW 1010,4 11 0,0
13.06.2019 11:00:00 13,6 13,0 25 14 38 21 SW 1009,5 8 0,0
13.06.2019 10:00:00 14,1 13,8 23 12 32 17 SSE 1008,7 1,5 0,0
13.06.2019 09:00:00 13,3 12,8 17 9 27 14 SE 1008,2 19 0,0
13.06.2019 08:00:00 12,2 11,7 19 11 29 16 ESE 1008,0 3,9 0,1
13.06.2019 07:00:00 11,8 11,2 17 9 27 15 E 1008,2 3,4 0,1
13.06.2019 06:00:00 11,3 10,7 24 13 34 19 E 1008,2 10 0,8
13.06.2019 05:00:00 11,5 10,9 18 10 39 21 ESE 1008,9 33 1,3
13.06.2019 04:00:00 10,7 10,1 29 16 41 22 N 1006,4 2,6 4,5
13.06.2019 03:00:00 10,9 10,1 15 8 29 15 ENE 1010,5 6 0,4
13.06.2019 02:00:00 10,9 9,0 20 11 40 22 NE 1011,0 50 0,0
13.06.2019 01:00:00 10,7 8,8 27 15 46 25 ENE 1011,6 47 0,0
13.06.2019 00:00:00 10,6 8,5 30 16 43 23 NE 1012,5 50 0,0
12.06.2019 23:00:00 11,0 8,2 28 15 44 24 NE 1013,8 50 0,0
12.06.2019 22:00:00 11,1 8,1 24 13 44 24 NE 1015,0 50 0,0
12.06.2019 21:00:00 11,0 7,9 31 17 47 25 NE 1015,1 50 0,0
12.06.2019 20:00:00 10,9 8,1 29 16 45 24 NE 1015,6 50 0,0
12.06.2019 19:00:00 10,4 7,8 36 19 51 27 ENE 1016,1 21 0,0
12.06.2019 18:00:00 10,8 7,5 33 18 53 29 ENE 1016,9 34 0,0
12.06.2019 17:00:00 11,1 7,6 31 17 54 29 ENE 1017,5 22 0,0
12.06.2019 16:00:00 12,4 6,7 36 19 48 26 ENE 1018,2 20 0,0
12.06.2019 15:00:00 13,2 5,8 31 17 42 23 ENE 1018,4 43 0,0
12.06.2019 14:00:00 13,9 6,0 26 14 39 21 ENE 1018,6 50 0,0
12.06.2019 13:00:00 14,2 6,3 22 12 44 24 ENE 1018,9 40 0,0
12.06.2019 12:00:00 13,8 5,4 31 17 - - NE 1017,7 47 0,0
12.06.2019 11:00:00 13,5 6,1 29 15 45 25 NE 1017,8 49 0,0
12.06.2019 10:00:00 13,1 6,0 34 19 53 28 ENE 1018,5 50 0,0
12.06.2019 09:00:00 12,9 5,6 34 18 50 27 ENE 1019,7 50 0,0
12.06.2019 08:00:00 12,6 6,4 30 16 51 28 ENE 1019,8 50 0,0
12.06.2019 07:00:00 12,5 5,9 29 16 44 24 ENE 1020,0 50 0,0
12.06.2019 06:00:00 12,3 6,1 31 17 48 26 ENE 1019,7 50 0,0
12.06.2019 05:00:00 12,2 7,1 31 17 48 26 ENE 1020,0 50 0,0
12.06.2019 04:00:00 12,1 7,6 29 16 45 24 NE 1020,4 50 0,0
12.06.2019 03:00:00 11,6 8,5 29 16 51 28 NE 1020,6 50 0,0
12.06.2019 02:00:00 11,6 9,3 33 18 49 27 NE 1020,5 50 0,0
12.06.2019 01:00:00 11,9 9,8 36 19 49 26 ENE 1020,8 50 0,1

tt = Température de l'air
td = dewpoint
ff = Vitesse du vent
fx = gusts
dd = Direction du vent
ppp = reduced air pressure
vv = visibility
rr = Quantités de précipitations

stations d'obs. à proximité